^^
Station Historical Data
Daily Summary for August 21, 2017 Units:  Metric    English   Both
« Previous Day
Next Day »
Daily Weekly Monthly Yearly Custom
  High: Low: Average:
Temperature: 29.7 °C 8.6 °C 15.9 °C
Dew Point: 3.2 °C -11.9 °C -7.2 °C
Humidity: 57% 10% 22%
Wind Speed: 25.9km/h 0km/h 5.8km/h
Wind Gust: 30.6km/h - -
Wind- - WSW
Pressure: 1018.2 hPa 1013.1 hPa -
Precipitation: 0 mm    
Historical Graphs
 
 
Tabular Data for August 21, 2017
Time Temperature Dew Point Pressure Wind Wind Speed Wind Gust Humidity Rainfall Rate (Hourly) solar Conditions
00:03 12.9 °C -9.5 °C 1016.8 hPa Calm     20% 0 mm 0.0 W/m2
00:08 12.3 °C -9.4 °C 1016.8 hPa Calm     21% 0 mm 0.0 W/m2
00:13 12.4 °C -9.3 °C 1016.8 hPa Calm     21% 0 mm 0.0 W/m2
00:18 12.7 °C -9.7 °C 1016.8 hPa Calm     20% 0 mm 0.0 W/m2
00:23 12.7 °C -9.7 °C 1016.8 hPa Calm     20% 0 mm 0.0 W/m2
00:28 12.6 °C -9.8 °C 1016.8 hPa Calm     20% 0 mm 0.0 W/m2
00:33 12.6 °C -9.8 °C 1016.8 hPa Calm     20% 0 mm 0.0 W/m2
00:38 12.1 °C -10.2 °C 1016.8 hPa Calm     20% 0 mm 0.0 W/m2
00:43 12.1 °C -10.2 °C 1016.8 hPa Calm     20% 0 mm 0.0 W/m2
00:49 11.7 °C -10.5 °C 1016.8 hPa Calm     20% 0 mm 0.0 W/m2
00:54 11.3 °C -10.3 °C 1016.8 hPa Calm     21% 0 mm 0.0 W/m2
00:59 11 °C -10.5 °C 1016.8 hPa Calm     21% 0 mm 0.0 W/m2
01:05 11.1 °C -10.4 °C 1016.5 hPa Calm     21% 0 mm 0.0 W/m2
01:10 10.8 °C -10.7 °C 1016.8 hPa Calm     21% 0 mm 0.0 W/m2
01:15 10.4 °C -11 °C 1016.8 hPa Calm     21% 0 mm 0.0 W/m2
01:20 10.2 °C -10.6 °C 1016.8 hPa Calm     22% 0 mm 0.0 W/m2
01:25 10.1 °C -10.7 °C 1016.8 hPa Calm     22% 0 mm 0.0 W/m2
01:30 10.3 °C -9.9 °C 1016.8 hPa Calm     23% 0 mm 0.0 W/m2
01:36 10.8 °C -10.1 °C 1016.8 hPa Calm     22% 0 mm 0.0 W/m2
01:41 11.4 °C -10.2 °C 1016.8 hPa Calm     21% 0 mm 0.0 W/m2
01:46 11.2 °C -10.3 °C 1016.5 hPa Calm     21% 0 mm 0.0 W/m2
01:51 10.6 °C -10.8 °C 1016.5 hPa Calm     21% 0 mm 0.0 W/m2
01:57 10.2 °C -10.6 °C 1016.5 hPa Calm     22% 0 mm 0.0 W/m2
02:02 9.8 °C -10.9 °C 1016.5 hPa Calm     22% 0 mm 0.0 W/m2
02:07 9.5 °C -11.2 °C 1016.5 hPa Calm     22% 0 mm 0.0 W/m2
02:12 9.2 °C -10.9 °C 1016.5 hPa Calm     23% 0 mm 0.0 W/m2
02:17 9.1 °C -11 °C 1016.5 hPa Calm     23% 0 mm 0.0 W/m2
02:22 9 °C -11 °C 1016.5 hPa Calm     23% 0 mm 0.0 W/m2
02:27 9.5 °C -10.1 °C 1016.5 hPa Calm     24% 0 mm 0.0 W/m2
02:32 9.8 °C -10.4 °C 1016.5 hPa Calm     23% 0 mm 0.0 W/m2
02:37 9.9 °C -10.8 °C 1016.5 hPa Calm     22% 0 mm 0.0 W/m2
02:43 10.3 °C -9.9 °C 1016.5 hPa Calm     23% 0 mm 0.0 W/m2
02:48 11.1 °C -9.8 °C 1016.5 hPa Calm     22% 0 mm 0.0 W/m2
02:53 11.3 °C -10.3 °C 1016.5 hPa Calm     21% 0 mm 0.0 W/m2
02:58 10.8 °C -10.7 °C 1016.5 hPa Calm     21% 0 mm 0.0 W/m2
03:03 10.8 °C -10.1 °C 1016.5 hPa Calm     22% 0 mm 0.0 W/m2
03:08 10.9 °C -10.6 °C 1016.5 hPa Calm     21% 0 mm 0.0 W/m2
03:14 10.8 °C -10.7 °C 1016.5 hPa Calm     21% 0 mm 0.0 W/m2
03:19 10.4 °C -11 °C 1016.5 hPa Calm     21% 0 mm 0.0 W/m2
03:24 10.1 °C -10.7 °C 1016.5 hPa Calm     22% 0 mm 0.0 W/m2
03:29 10.1 °C -10.7 °C 1016.5 hPa Calm     22% 0 mm 0.0 W/m2
03:39 10.8 °C -10.7 °C 1016.1 hPa WNW 3.2 km/h 4.8 km/h 21% 0 mm 0.0 W/m2
03:44 10.8 °C -10.7 °C 1016.1 hPa Calm   3.2 km/h 21% 0 mm 0.0 W/m2
03:49 10.8 °C -10.7 °C 1016.1 hPa WNW 3.2 km/h 4.8 km/h 21% 0 mm 0.0 W/m2
03:59 10.1 °C -10.7 °C 1016.1 hPa Calm     22% 0 mm 0.0 W/m2
04:04 10.2 °C -11.2 °C 1016.1 hPa WNW 3.2 km/h 6.4 km/h 21% 0 mm 0.0 W/m2
04:10 10.1 °C -11.3 °C 1016.1 hPa WNW 4.7 km/h 6.4 km/h 21% 0 mm 0.0 W/m2
04:15 10.1 °C -11.3 °C 1016.1 hPa Calm   4.8 km/h 21% 0 mm 0.0 W/m2
04:20 9.9 °C -10.8 °C 1016.5 hPa Calm     22% 0 mm 0.0 W/m2
04:25 10.1 °C -11.3 °C 1016.1 hPa Calm     21% 0 mm 0.0 W/m2
04:30 10.3 °C -11.1 °C 1016.5 hPa Calm     21% 0 mm 0.0 W/m2
04:35 10.2 °C -11.2 °C 1016.5 hPa Calm     21% 0 mm 0.0 W/m2
04:41 10.2 °C -11.2 °C 1016.5 hPa Calm     21% 0 mm 0.0 W/m2
04:46 10.4 °C -11 °C 1016.5 hPa Calm     21% 0 mm 0.0 W/m2
04:56 10.7 °C -11.4 °C 1016.5 hPa Calm     20% 0 mm 0.0 W/m2
05:01 10.4 °C -11.6 °C 1016.5 hPa WNW 1.4 km/h 6.4 km/h 20% 0 mm 0.0 W/m2
05:06 10.3 °C -11.1 °C 1016.5 hPa WNW 1.4 km/h 1.6 km/h 21% 0 mm 0.0 W/m2
05:12 10.1 °C -11.3 °C 1016.5 hPa Calm     21% 0 mm 0.0 W/m2
05:17 9.9 °C -10.8 °C 1016.5 hPa Calm     22% 0 mm 0.0 W/m2
05:27 9.8 °C -11.5 °C 1016.5 hPa Calm     21% 0 mm 0.0 W/m2
05:32 10 °C -11.3 °C 1016.8 hPa Calm     21% 0 mm 0.0 W/m2
05:43 10.5 °C -11.5 °C 1016.8 hPa Calm     20% 0 mm 0.0 W/m2
05:49 10.3 °C -11.7 °C 1016.8 hPa Calm     20% 0 mm 0.0 W/m2
05:55 10.1 °C -11.9 °C 1016.8 hPa Calm     20% 0 mm 0.0 W/m2
06:03 9.6 °C -11.7 °C 1016.8 hPa Calm     21% 0 mm 0.0 W/m2
06:14 9.1 °C -11.5 °C 1016.8 hPa Calm     22% 0 mm 0.0 W/m2
06:29 8.6 °C -11.9 °C 1017.2 hPa Calm   6.4 km/h 22% 0 mm 11.0 W/m2
07:01 9.9 °C -11.4 °C 1017.5 hPa Calm     21% 0 mm 65.0 W/m2
07:47 12.7 °C -11 °C 1017.8 hPa Calm     18% 0 mm 218.0 W/m2
07:56 15.2 °C -10.5 °C 1017.8 hPa Calm     16% 0 mm 267.0 W/m2
08:11 16.4 °C -10.3 °C 1017.8 hPa Calm     15% 0 mm 315.0 W/m2
08:27 17.7 °C -10.2 °C 1017.8 hPa Calm   6.4 km/h 14% 0 mm 353.0 W/m2
08:37 18.4 °C -10.5 °C 1017.8 hPa Calm   9.7 km/h 13% 0 mm 385.0 W/m2
08:50 19 °C -11.1 °C 1017.8 hPa Calm   14.5 km/h 12% 0 mm 411.0 W/m2
09:01 19.6 °C -11.7 °C 1017.8 hPa NW 7.9 km/h 12.9 km/h 11% 0 mm 438.0 W/m2
09:10 19.6 °C -11.7 °C 1018.2 hPa NW 13 km/h 14.5 km/h 11% 0 mm 461.0 W/m2
09:17 19.8 °C -11.5 °C 1018.2 hPa NNW 1.4 km/h 12.9 km/h 11% 0 mm 492.0 W/m2
09:31 20.2 °C -11.2 °C 1018.2 hPa Calm   8 km/h 11% 0 mm 512.0 W/m2
09:41 20.5 °C -11 °C 1018.2 hPa NNW 6.4 km/h 14.5 km/h 11% 0 mm 531.0 W/m2
09:52 20.9 °C -10.7 °C 1017.8 hPa NNW 9.7 km/h 14.5 km/h 11% 0 mm 555.0 W/m2
09:58 21.6 °C -10.1 °C 1017.8 hPa NNW 11.1 km/h 11.3 km/h 11% 0 mm 577.0 W/m2
10:08 22.1 °C -9.8 °C 1017.8 hPa Calm   11.3 km/h 11% 0 mm 592.0 W/m2
10:23 22.9 °C -8 °C 1017.5 hPa NNW 11.1 km/h 14.5 km/h 12% 0 mm 617.0 W/m2
10:44 23.3 °C -7.7 °C 1017.2 hPa NNW 1.4 km/h 20.9 km/h 12% 0 mm 635.0 W/m2
10:53 23.7 °C -7.4 °C 1016.8 hPa NNW 1.4 km/h 29 km/h 12% 0 mm 650.0 W/m2
11:03 24.2 °C -8.1 °C 1016.8 hPa NNW 14.3 km/h 20.9 km/h 11% 0 mm 663.0 W/m2
11:13 24.7 °C -7.8 °C 1016.5 hPa NNW 7.9 km/h 20.9 km/h 11% 0 mm 666.0 W/m2
11:24 25.3 °C -7.3 °C 1016.1 hPa NNW 6.4 km/h 22.5 km/h 11% 0 mm 671.0 W/m2
11:31 25.5 °C -8.4 °C 1016.1 hPa NNW 7.9 km/h 19.3 km/h 10% 0 mm 675.0 W/m2
11:39 25.7 °C -7 °C 1016.1 hPa NNW 3.2 km/h 20.9 km/h 11% 0 mm 679.0 W/m2
11:45 25.9 °C -6.8 °C 1015.8 hPa NNW 14.3 km/h 29 km/h 11% 0 mm 679.0 W/m2
11:49 26 °C -6.8 °C 1015.8 hPa NNW 14.3 km/h 22.5 km/h 11% 0 mm 682.0 W/m2
11:55 26.1 °C -6.7 °C 1015.8 hPa NNW 20.9 km/h 20.9 km/h 11% 0 mm 684.0 W/m2
12:00 26.3 °C -7.8 °C 1015.8 hPa NNW 13 km/h 24.1 km/h 10% 0 mm 686.0 W/m2
12:05 26.6 °C -6.3 °C 1015.8 hPa NNW 14.3 km/h 22.5 km/h 11% 0 mm 687.0 W/m2
12:11 26.6 °C -6.3 °C 1015.5 hPa NNW 6.4 km/h 20.9 km/h 11% 0 mm 684.0 W/m2
12:16 26.9 °C -4.9 °C 1015.5 hPa NNW 7.9 km/h 24.1 km/h 12% 0 mm 689.0 W/m2
12:26 27.3 °C -5.8 °C 1015.1 hPa NNW 3.2 km/h 14.5 km/h 11% 0 mm 680.0 W/m2
15:11 29.7 °C -5.2 °C 1013.1 hPa West 25.9 km/h 25.9 km/h 10% 0 mm 357.0 W/m2
15:16 29.4 °C -5.4 °C 1013.1 hPa SSW 24.1 km/h 30.6 km/h 10% 0 mm 343.0 W/m2
15:24 29.2 °C -5.6 °C 1013.1 hPa SW 19.5 km/h 25.7 km/h 10% 0 mm 330.0 W/m2
15:37 29 °C -5.7 °C 1013.1 hPa SW 19.5 km/h 24.1 km/h 10% 0 mm 297.0 W/m2
15:51 28.7 °C -5.9 °C 1013.1 hPa SW 17.7 km/h 19.3 km/h 10% 0 mm 265.0 W/m2
16:06 28.2 °C -6.3 °C 1013.1 hPa SW 14.3 km/h 22.5 km/h 10% 0 mm 211.0 W/m2
16:18 27.8 °C -5.4 °C 1013.1 hPa SW 17.7 km/h 22.5 km/h 11% 0 mm 156.0 W/m2
16:28 27.7 °C -5.4 °C 1013.1 hPa SW 13 km/h 22.5 km/h 11% 0 mm 127.0 W/m2
16:36 27.6 °C -5.5 °C 1013.1 hPa SW 19.5 km/h 19.5 km/h 11% 0 mm 100.0 W/m2
16:44 27.2 °C -5.8 °C 1013.1 hPa SSW 19.5 km/h 22.5 km/h 11% 0 mm 72.0 W/m2
17:05 26.5 °C -5.2 °C 1013.4 hPa SSW 14.3 km/h 25.7 km/h 12% 0 mm 33.0 W/m2
17:12 25.8 °C -4.7 °C 1013.4 hPa SSW 16.3 km/h 19.3 km/h 13% 0 mm 16.0 W/m2
17:21 25.2 °C -5.2 °C 1013.8 hPa SSW 17.7 km/h 20.9 km/h 13% 0 mm 9.0 W/m2
17:31 24.5 °C -4.8 °C 1013.8 hPa SSW 11.1 km/h 17.7 km/h 14% 0 mm 0.0 W/m2
17:38 24 °C -3.4 °C 1013.8 hPa SSW 13 km/h 19.3 km/h 16% 0 mm 0.0 W/m2
17:55 22.8 °C -2.8 °C 1014.1 hPa SSW 13 km/h 16.1 km/h 18% 0 mm 0.0 W/m2
18:05 22.1 °C -1.3 °C 1014.1 hPa SSW 14.3 km/h 17.7 km/h 21% 0 mm 0.0 W/m2
18:17 21.6 °C -1 °C 1014.4 hPa SSW 14.3 km/h 27.4 km/h 22% 0 mm 0.0 W/m2
18:32 21.3 °C -1.3 °C 1014.4 hPa South 11.1 km/h 17.7 km/h 22% 0 mm 0.0 W/m2
18:47 20.7 °C -1.2 °C 1014.8 hPa South 16.3 km/h 16.3 km/h 23% 0 mm 0.0 W/m2
19:18 19.4 °C -0.1 °C 1015.1 hPa South 6.4 km/h 14.5 km/h 27% 0 mm 0.0 W/m2
19:49 18.3 °C 0 °C 1015.5 hPa South 13 km/h 19.3 km/h 29% 0 mm 0.0 W/m2
20:03 18.1 °C 0.2 °C 1015.5 hPa South 16.3 km/h 17.7 km/h 30% 0 mm 0.0 W/m2
20:17 17.8 °C 0 °C 1015.5 hPa South 7.9 km/h 12.9 km/h 30% 0 mm 0.0 W/m2
20:27 17.3 °C 0.4 °C 1015.8 hPa South 9.7 km/h 12.9 km/h 32% 0 mm 0.0 W/m2
20:38 17 °C 0.2 °C 1015.8 hPa South 1.4 km/h 4.8 km/h 32% 0 mm 0.0 W/m2
20:49 16.7 °C 0.3 °C 1016.1 hPa Calm     33% 0 mm 0.0 W/m2
21:20 15.8 °C 0 °C 1016.1 hPa South 3.2 km/h 8 km/h 34% 0 mm 0.0 W/m2
21:34 15.2 °C -0.6 °C 1016.5 hPa South 9.7 km/h 11.3 km/h 34% 0 mm 0.0 W/m2
21:50 15.1 °C 1.2 °C 1016.5 hPa South 7.9 km/h 8 km/h 39% 0 mm 0.0 W/m2
22:03 14.6 °C 1.5 °C 1016.5 hPa South 7.9 km/h 9.7 km/h 41% 0 mm 0.0 W/m2
22:13 14.3 °C 1.9 °C 1016.5 hPa South 13 km/h 13 km/h 43% 0 mm 0.0 W/m2
22:20 14.2 °C 2.1 °C 1016.8 hPa South 7.9 km/h 16.1 km/h 44% 0 mm 0.0 W/m2
22:30 14 °C 1.9 °C 1016.8 hPa South 11.1 km/h 14.5 km/h 44% 0 mm 0.0 W/m2
22:35 13.9 °C 1.8 °C 1016.8 hPa South 13 km/h 16.1 km/h 44% 0 mm 0.0 W/m2
22:45 13.6 °C 1.9 °C 1016.8 hPa South 13 km/h 16.1 km/h 45% 0 mm 0.0 W/m2
22:55 13.3 °C 2.5 °C 1016.8 hPa South 14.3 km/h 16.1 km/h 48% 0 mm 0.0 W/m2
23:00 13.1 °C 2.9 °C 1016.8 hPa South 14.3 km/h 19.3 km/h 50% 0 mm 0.0 W/m2
23:05 12.9 °C 2.4 °C 1016.8 hPa South 14.3 km/h 17.7 km/h 49% 0 mm 0.0 W/m2
23:10 12.8 °C 2.3 °C 1016.8 hPa South 13 km/h 16.1 km/h 49% 0 mm 0.0 W/m2
23:15 12.6 °C 2.4 °C 1016.8 hPa South 13 km/h 16.1 km/h 50% 0 mm 0.0 W/m2
23:20 12.5 °C 2.6 °C 1016.8 hPa South 16.3 km/h 17.7 km/h 51% 0 mm 0.0 W/m2
23:30 12.3 °C 2.4 °C 1017.2 hPa South 11.1 km/h 17.7 km/h 51% 0 mm 0.0 W/m2
23:35 12.1 °C 2.5 °C 1017.2 hPa South 13 km/h 17.7 km/h 52% 0 mm 0.0 W/m2
23:40 11.9 °C 2.9 °C 1017.5 hPa South 13 km/h 17.7 km/h 54% 0 mm 0.0 W/m2
23:50 11.6 °C 3.1 °C 1017.5 hPa South 17.7 km/h 20.9 km/h 56% 0 mm 0.0 W/m2
23:56 11.4 °C 3.2 °C 1017.5 hPa South 19.5 km/h 20.9 km/h 57% 0 mm 0.0 W/m2
Canyon Roadhouse, Fishriver Canyon, Namibia
Compliments of Weather Underground - 2.5 mb